This is the latest recevied weather packets stored in our database for station/object KG5EO. If no packets are shown the sender has not sent any weather packets the latest 1 day(s).
| Time | Temp. | Humidity | Pressure | Rain* | Wind** | Luminosity | Snow |
|---|---|---|---|---|---|---|---|
| 1778041854 | 20° C | 31% | 41 hPa | 0 mm | 0 m/s | - | - |
| 1778041554 | 20.56° C | 31% | 41 hPa | 0 mm | 0 m/s | - | - |
| 1778041284 | 20.56° C | 31% | 41 hPa | 0 mm | 0 m/s | - | - |
| 1778040954 | 20.56° C | 30% | 41 hPa | 0 mm | 0 m/s | - | - |
| 1778040653 | 20.56° C | 30% | 41 hPa | 0 mm | 0.45 m/s, 266° | - | - |
| 1778040353 | 20.56° C | 30% | 41 hPa | 0 mm | 0.89 m/s, 269° | - | - |
| 1778040083 | 21.11° C | 30% | 41 hPa | 0 mm | 0 m/s | - | - |
| 1778039753 | 21.11° C | 30% | 41 hPa | 0 mm | 0.89 m/s, 318° | - | - |
| 1778039453 | 21.11° C | 30% | 41 hPa | 0 mm | 2.68 m/s, 276° | - | - |
| 1778039154 | 21.11° C | 30% | 41 hPa | 0 mm | 1.34 m/s, 266° | - | - |
| 1778038852 | 21.11° C | 30% | 41 hPa | 0 mm | 0.89 m/s, 285° | - | - |
| 1778038553 | 21.11° C | 31% | 41 hPa | 0 mm | 0 m/s | - | - |
| 1778038283 | 21.11° C | 31% | 41 hPa | 0 mm | 0.89 m/s, 291° | - | - |
| 1778037953 | 21.11° C | 31% | 41 hPa | 0 mm | 0 m/s | - | - |
| 1778037653 | 21.11° C | 31% | 41 hPa | 0 mm | 1.34 m/s, 298° | - | - |
| 1778037382 | 21.67° C | 31% | 41 hPa | 0 mm | 0.89 m/s, 255° | - | - |
| 1778037082 | 21.67° C | 31% | 41 hPa | 0 mm | 0.89 m/s, 295° | - | - |
| 1778036781 | 21.67° C | 31% | 41 hPa | 0 mm | 0 m/s | - | - |
| 1778036481 | 21.67° C | 31% | 41 hPa | 0 mm | 0 m/s | - | - |
| 1778036181 | 21.67° C | 31% | 40.9 hPa | 0 mm | 1.34 m/s, 299° | - | - |
| 1778035881 | 21.67° C | 30% | 41 hPa | 0 mm | 0.89 m/s, 278° | - | - |
| 1778035581 | 22.22° C | 30% | 40.9 hPa | 0 mm | 0.45 m/s, 286° | - | - |
| 1778035281 | 22.22° C | 29% | 40.9 hPa | 0 mm | 2.24 m/s, 263° | - | - |
| 1778034980 | 22.22° C | 29% | 40.9 hPa | 0 mm | 1.34 m/s, 269° | - | - |
| 1778034680 | 22.22° C | 29% | 40.9 hPa | 0 mm | 0 m/s | - | - |
* Rain latest hour (hover to see other rain measurements)
** Current wind speed in m/s (hover to see current wind gust speed)